| time (UTC) | temp F | wind direction | speed knots | gust knots | rain 1hr in | rain 24hr in | rain mn in | humidity % | barometer mb |
| 20260906105805 | 78 | 18 | 2.6 | 7.0 | 0.00 | 0.00 | 0.00 | 88 | 1014.6 |
| 20260906105306 | 78 | 351 | 3.5 | 7.0 | 0.00 | 0.00 | 0.00 | 89 | 1014.6 |
| 20260906104806 | 77 | 29 | 2.6 | 7.0 | 0.00 | 0.00 | 0.00 | 89 | 1014.2 |
| 20260906104305 | 77 | 3 | 3.5 | 6.1 | 0.00 | 0.00 | 0.00 | 89 | 1014.6 |
| 20260906103805 | 77 | 346 | 4.3 | 5.2 | 0.00 | 0.00 | 0.00 | 90 | 1014.2 |
| 20260906103305 | 77 | 23 | 0.9 | 6.1 | 0.00 | 0.00 | 0.00 | 90 | 1014.2 |
| 20260906102806 | 77 | 28 | 3.5 | 5.2 | 0.00 | 0.00 | 0.00 | 91 | 1014.2 |
| 20260906102306 | 77 | 325 | 1.7 | 5.2 | 0.00 | 0.00 | 0.00 | 91 | 1014.2 |
| 20260906101806 | 77 | 346 | 1.7 | 8.7 | 0.00 | 0.00 | 0.00 | 91 | 1013.9 |
| 20260906101305 | 77 | 10 | 1.7 | 12.2 | 0.00 | 0.00 | 0.00 | 91 | 1014.2 |
| 20260906100805 | 77 | 336 | 7.0 | 9.6 | 0.00 | 0.00 | 0.00 | 91 | 1014.2 |
| 20260906100305 | 77 | 333 | 5.2 | 6.1 | 0.00 | 0.00 | 0.00 | 90 | 1013.9 |
| 20260906095805 | 77 | 340 | 3.5 | 4.3 | 0.00 | 0.00 | 0.00 | 89 | 1013.5 |
| 20260906095306 | 78 | 285 | 2.6 | 4.3 | 0.00 | 0.00 | 0.00 | 89 | 1013.5 |
| 20260906094805 | 78 | 349 | 2.6 | 4.3 | 0.00 | 0.00 | 0.00 | 88 | 1013.5 |
| 20260906094306 | 78 | 275 | 0.9 | 5.2 | 0.00 | 0.00 | 0.00 | 88 | 1013.5 |
| 20260906093805 | 78 | 333 | 1.7 | 5.2 | 0.00 | 0.00 | 0.00 | 89 | 1013.5 |
| 20260906093305 | 78 | 42 | 0.9 | 4.3 | 0.00 | 0.00 | 0.00 | 89 | 1013.5 |
| 20260906092805 | 77 | 326 | 2.6 | 6.1 | 0.00 | 0.00 | 0.00 | 90 | 1013.5 |
| 20260906092306 | 77 | 331 | 2.6 | 6.1 | 0.00 | 0.00 | 0.00 | 90 | 1013.5 |
| 20260906091805 | 77 | 315 | 1.7 | 6.1 | 0.00 | 0.00 | 0.00 | 90 | 1013.2 |
| 20260906091305 | 77 | 355 | 3.5 | 9.6 | 0.00 | 0.00 | 0.00 | 91 | 1013.5 |
| 20260906090805 | 77 | 24 | 5.2 | 9.6 | 0.00 | 0.00 | 0.00 | 91 | 1013.5 |
| 20260906090305 | 77 | 284 | 0.0 | 3.5 | 0.00 | 0.00 | 0.00 | 90 | 1012.8 |
| 20260906085805 | 77 | 110 | 0.9 | 3.5 | 0.00 | 0.00 | 0.00 | 90 | 1012.8 |
| 20260906085307 | 77 | 142 | 0.9 | 6.1 | 0.00 | 0.00 | 0.00 | 89 | 1012.8 |
| 20260906084805 | 77 | 340 | 1.7 | 6.1 | 0.00 | 0.00 | 0.00 | 89 | 1012.8 |
| 20260906084305 | 77 | 324 | 1.7 | 4.3 | 0.00 | 0.00 | 0.00 | 90 | 1012.8 |
| 20260906083805 | 77 | 131 | 2.6 | 3.5 | 0.00 | 0.00 | 0.00 | 90 | 1012.8 |
| 20260906083305 | 77 | 34 | 0.9 | 5.2 | 0.00 | 0.00 | 0.00 | 91 | 1012.8 |
| 20260906082806 | 77 | 187 | 2.6 | 5.2 | 0.00 | 0.00 | 0.00 | 91 | 1012.8 |
| 20260906082306 | 77 | 124 | 1.7 | 4.3 | 0.00 | 0.00 | 0.00 | 91 | 1012.8 |
| 20260906081805 | 77 | 121 | 0.0 | 4.3 | 0.00 | 0.00 | 0.00 | 91 | 1012.5 |
| 20260906081306 | 77 | 172 | 1.7 | 4.3 | 0.00 | 0.00 | 0.00 | 91 | 1012.8 |
| 20260906080805 | 78 | 61 | 1.7 | 4.3 | 0.00 | 0.00 | 0.00 | 90 | 1012.8 |
| 20260906080305 | 78 | 50 | 0.9 | 6.1 | 0.00 | 0.00 | 0.00 | 90 | 1012.8 |
| 20260906075805 | 78 | 336 | 2.6 | 6.1 | 0.00 | 0.00 | 0.00 | 90 | 1013.2 |
| 20260906075306 | 78 | 356 | 1.7 | 6.1 | 0.00 | 0.00 | 0.00 | 90 | 1013.2 |
| 20260906074806 | 78 | 173 | 1.7 | 3.5 | 0.00 | 0.00 | 0.00 | 90 | 1012.8 |
| 20260906074305 | 78 | 337 | 0.9 | 5.2 | 0.00 | 0.00 | 0.00 | 90 | 1013.2 |
| 20260906073805 | 78 | 57 | 0.0 | 5.2 | 0.00 | 0.00 | 0.00 | 89 | 1012.8 |
| 20260906073305 | 78 | 193 | 0.9 | 4.3 | 0.00 | 0.00 | 0.00 | 89 | 1012.8 |
| 20260906072805 | 78 | 347 | 1.7 | 4.3 | 0.00 | 0.00 | 0.00 | 90 | 1012.8 |
| 20260906072306 | 78 | 34 | 1.7 | 4.3 | 0.00 | 0.00 | 0.00 | 91 | 1013.2 |
| 20260906071805 | 78 | 196 | 1.7 | 4.3 | 0.00 | 0.00 | 0.00 | 91 | 1012.8 |
| 20260906071305 | 78 | 223 | 0.0 | 3.5 | 0.00 | 0.00 | 0.00 | 91 | 1012.8 |
| 20260906070804 | 78 | 282 | 2.6 | 3.5 | 0.00 | 0.00 | 0.00 | 90 | 1012.8 |
| 20260906070304 | 79 | 128 | 1.7 | 5.2 | 0.00 | 0.00 | 0.00 | 90 | 1012.8 |
| 20260906065805 | 79 | 36 | 1.7 | 5.2 | 0.00 | 0.00 | 0.00 | 89 | 1012.8 |
| 20260906065306 | 79 | 35 | 2.6 | 3.5 | 0.00 | 0.00 | 0.00 | 89 | 1012.8 |
| 20260906064805 | 79 | 330 | 0.0 | 3.5 | 0.00 | 0.00 | 0.00 | 89 | 1012.8 |
| 20260906064305 | 79 | 217 | 0.0 | 2.6 | 0.00 | 0.00 | 0.00 | 88 | 1012.8 |
| 20260906063805 | 79 | 204 | 0.0 | 2.6 | 0.00 | 0.00 | 0.00 | 89 | 1012.8 |
| 20260906063305 | 79 | 77 | 0.0 | 0.9 | 0.00 | 0.00 | 0.00 | 89 | 1012.8 |
| 20260906062805 | 79 | 221 | 0.9 | 1.7 | 0.00 | 0.00 | 0.00 | 89 | 1012.8 |
| 20260906062306 | 80 | 199 | 0.0 | 1.7 | 0.00 | 0.00 | 0.00 | 88 | 1012.8 |
| 20260906061805 | 80 | 194 | 0.0 | 1.7 | 0.00 | 0.00 | 0.00 | 87 | 1012.8 |
| 20260906061305 | 80 | 284 | 0.0 | 1.7 | 0.00 | 0.00 | 0.00 | 87 | 1012.8 |
| 20260906060805 | 80 | 337 | 0.0 | 2.6 | 0.00 | 0.00 | 0.00 | 87 | 1012.8 |
| 20260906060305 | 80 | 338 | 1.7 | 2.6 | 0.00 | 0.00 | 0.00 | 87 | 1012.8 |
| 20260906055805 | 80 | 242 | 0.0 | 0.9 | 0.00 | 0.00 | 0.00 | 86 | 1012.8 |
| 20260906055306 | 80 | 37 | 0.0 | 0.9 | 0.00 | 0.00 | 0.00 | 87 | 1012.8 |
| 20260906054805 | 80 | 218 | 0.0 | 0.9 | 0.00 | 0.00 | 0.00 | 87 | 1012.8 |
| 20260906054305 | 80 | 87 | 0.0 | 1.7 | 0.00 | 0.00 | 0.00 | 86 | 1012.8 |
| 20260906053805 | 80 | 212 | 0.0 | 1.7 | 0.00 | 0.00 | 0.00 | 87 | 1013.2 |
| 20260906053305 | 80 | 185 | 0.0 | 1.7 | 0.00 | 0.00 | 0.00 | 86 | 1012.8 |
| 20260906052805 | 80 | 328 | 0.0 | 1.7 | 0.00 | 0.00 | 0.00 | 87 | 1013.2 |
| 20260906052306 | 80 | 44 | 0.0 | 1.7 | 0.00 | 0.00 | 0.00 | 86 | 1013.2 |
| 20260906051806 | 80 | 135 | 0.0 | 2.6 | 0.00 | 0.00 | 0.00 | 87 | 1013.5 |
| 20260906051305 | 80 | 191 | 0.0 | 3.5 | 0.00 | 0.00 | 0.00 | 89 | 1013.2 |
| 20260906050805 | 80 | 191 | 0.0 | 3.5 | 0.00 | 0.00 | 0.00 | 89 | 1013.2 |
| 20260906050305 | 80 | 123 | 0.9 | 2.6 | 0.00 | 0.00 | 0.00 | 88 | 1013.2 |
| 20260906045805 | 81 | 62 | 0.0 | 1.7 | 0.00 | 0.00 | 0.00 | 87 | 1013.2 |
| 20260906045306 | 80 | 341 | 0.0 | 1.7 | 0.00 | 0.00 | 0.00 | 87 | 1013.2 |
| 20260906044805 | 80 | 76 | 0.0 | 1.7 | 0.00 | 0.00 | 0.00 | 88 | 1013.2 |
| 20260906044305 | 80 | 325 | 0.0 | 1.7 | 0.00 | 0.00 | 0.00 | 88 | 1013.2 |
| 20260906043805 | 81 | 326 | 0.0 | 2.6 | 0.00 | 0.00 | 0.00 | 87 | 1013.5 |
| 20260906043306 | 81 | 331 | 0.0 | 2.6 | 0.00 | 0.00 | 0.00 | 88 | 1013.5 |
| 20260906042805 | 81 | 327 | 1.7 | 2.6 | 0.00 | 0.00 | 0.00 | 87 | 1013.5 |
| 20260906042306 | 81 | 342 | 0.9 | 2.6 | 0.00 | 0.00 | 0.00 | 88 | 1013.5 |
| 20260906041805 | 81 | 339 | 1.7 | 2.6 | 0.00 | 0.00 | 0.00 | 88 | 1013.2 |
| 20260906041305 | 81 | 338 | 1.7 | 2.6 | 0.00 | 0.00 | 0.00 | 87 | 1013.2 |
| 20260906040805 | 81 | 350 | 0.9 | 1.7 | 0.00 | 0.00 | 0.00 | 87 | 1013.2 |
| 20260906040305 | 81 | 242 | 0.0 | 0.9 | 0.00 | 0.00 | 0.00 | 87 | 1013.2 |
| 20260906035806 | 81 | 230 | 0.0 | 1.7 | 0.00 | 0.00 | 0.00 | 88 | 1012.8 |
| 20260906035306 | 81 | 224 | 0.0 | 1.7 | 0.00 | 0.00 | 0.00 | 87 | 1013.2 |
| 20260906034805 | 81 | 334 | 0.0 | 1.7 | 0.00 | 0.00 | 0.00 | 87 | 1013.2 |
| 20260906034304 | 82 | 347 | 0.9 | 3.5 | 0.00 | 0.00 | 0.00 | 86 | 1013.2 |
| 20260906033805 | 82 | 335 | 0.9 | 3.5 | 0.00 | 0.00 | 0.00 | 86 | 1013.2 |
| 20260906033305 | 82 | 328 | 3.5 | 3.5 | 0.00 | 0.00 | 0.00 | 86 | 1013.2 |
| 20260906032805 | 82 | 164 | 0.0 | 1.7 | 0.00 | 0.00 | 0.00 | 85 | 1013.2 |
| 20260906032306 | 83 | 322 | 0.0 | 1.7 | 0.00 | 0.00 | 0.00 | 84 | 1013.2 |
| 20260906031805 | 83 | 230 | 0.0 | 1.7 | 0.00 | 0.00 | 0.00 | 83 | 1013.2 |
| 20260906031305 | 82 | 89 | 0.0 | 2.6 | 0.00 | 0.00 | 0.00 | 85 | 1013.2 |
| 20260906030805 | 82 | 320 | 1.7 | 1.7 | 0.00 | 0.00 | 0.00 | 85 | 1013.5 |
| 20260906030304 | 82 | 337 | 0.9 | 1.7 | 0.00 | 0.00 | 0.00 | 84 | 1013.2 |
| 20260906025805 | 82 | 343 | 0.9 | 1.7 | 0.00 | 0.00 | 0.00 | 84 | 1013.2 |
| 20260906025306 | 83 | 336 | 0.9 | 2.6 | 0.00 | 0.00 | 0.00 | 84 | 1013.2 |
| 20260906024805 | 82 | 321 | 0.9 | 2.6 | 0.00 | 0.00 | 0.00 | 84 | 1013.2 |
| 20260906024305 | 82 | 340 | 1.7 | 1.7 | 0.00 | 0.00 | 0.00 | 84 | 1012.8 |
| 20260906023805 | 82 | 303 | 0.0 | 1.7 | 0.00 | 0.00 | 0.00 | 84 | 1012.8 |
| 20260906023305 | 83 | 305 | 0.9 | 1.7 | 0.00 | 0.00 | 0.00 | 84 | 1012.8 |
| 20260906022805 | 83 | 322 | 0.0 | 0.9 | 0.00 | 0.00 | 0.00 | 83 | 1012.5 |
| 20260906022307 | 83 | 337 | 0.0 | 0.9 | 0.00 | 0.00 | 0.00 | 83 | 1012.8 |
| 20260906021805 | 84 | 129 | 0.0 | 2.6 | 0.00 | 0.00 | 0.00 | 83 | 1012.5 |
| 20260906021304 | 84 | 255 | 0.0 | 2.6 | 0.00 | 0.00 | 0.00 | 82 | 1012.5 |
| 20260906020805 | 84 | 312 | 0.0 | 1.7 | 0.00 | 0.00 | 0.00 | 82 | 1012.5 |
| 20260906020305 | 85 | 348 | 0.9 | 1.7 | 0.00 | 0.00 | 0.00 | 81 | 1012.5 |
| 20260906015805 | 84 | 69 | 0.0 | 1.7 | 0.00 | 0.00 | 0.00 | 82 | 1012.5 |
| 20260906015306 | 84 | 221 | 0.9 | 1.7 | 0.00 | 0.00 | 0.00 | 83 | 1012.1 |
| 20260906014805 | 84 | 129 | 0.0 | 0.9 | 0.00 | 0.00 | 0.00 | 83 | 1012.5 |
| 20260906014304 | 85 | 236 | 0.0 | 1.7 | 0.00 | 0.00 | 0.00 | 82 | 1012.5 |
| 20260906013805 | 85 | 153 | 0.9 | 1.7 | 0.00 | 0.00 | 0.00 | 80 | 1012.1 |
| 20260906013305 | 85 | 135 | 0.0 | 1.7 | 0.00 | 0.00 | 0.00 | 80 | 1012.1 |
| 20260906012805 | 85 | 308 | 0.0 | 1.7 | 0.00 | 0.00 | 0.00 | 80 | 1012.1 |
| 20260906012306 | 86 | 316 | 0.0 | 2.6 | 0.00 | 0.00 | 0.00 | 80 | 1012.1 |
| 20260906011805 | 85 | 335 | 0.9 | 2.6 | 0.00 | 0.00 | 0.00 | 81 | 1012.1 |
| 20260906011305 | 85 | 160 | 0.0 | 0.9 | 0.00 | 0.00 | 0.00 | 82 | 1012.1 |
| 20260906010805 | 86 | 164 | 0.0 | 1.7 | 0.00 | 0.00 | 0.00 | 81 | 1011.8 |
| 20260906010305 | 87 | 165 | 0.0 | 1.7 | 0.00 | 0.00 | 0.00 | 78 | 1012.1 |
| 20260906005805 | 87 | 211 | 0.0 | 2.6 | 0.00 | 0.00 | 0.00 | 76 | 1011.8 |
| 20260906005306 | 88 | 321 | 0.0 | 2.6 | 0.00 | 0.00 | 0.00 | 76 | 1011.8 |
| 20260906004805 | 88 | 327 | 1.7 | 1.7 | 0.00 | 0.00 | 0.00 | 75 | 1012.1 |
| 20260906004305 | 89 | 299 | 1.7 | 1.7 | 0.00 | 0.00 | 0.00 | 73 | 1011.8 |
| 20260906003804 | 89 | 340 | 1.7 | 2.6 | 0.00 | 0.00 | 0.00 | 73 | 1011.8 |
| 20260906003305 | 89 | 269 | 0.9 | 2.6 | 0.00 | 0.00 | 0.00 | 73 | 1011.8 |
| 20260906002805 | 90 | 215 | 0.0 | 1.7 | 0.00 | 0.00 | 0.00 | 72 | 1011.8 |
| 20260906002306 | 90 | 295 | 0.0 | 2.6 | 0.00 | 0.00 | 0.00 | 70 | 1011.8 |
| 20260906001804 | 91 | 291 | 0.0 | 2.6 | 0.00 | 0.00 | 0.00 | 69 | 1011.8 |
| 20260906001305 | 91 | 328 | 1.7 | 2.6 | 0.00 | 0.00 | 0.00 | 68 | 1011.8 |
| 20260906000805 | 92 | 319 | 1.7 | 2.6 | 0.00 | 0.00 | 0.00 | 66 | 1011.8 |
| 20260906000304 | 93 | 322 | 0.0 | 2.6 | 0.00 | 0.00 | 0.00 | 64 | 1012.1 |
| 20260905235805 | 94 | 311 | 0.0 | 3.5 | 0.00 | 0.00 | 0.00 | 62 | 1011.8 |
| 20260905235306 | 94 | 5 | 1.7 | 3.5 | 0.00 | 0.00 | 0.00 | 62 | 1012.1 |
| 20260905234805 | 95 | 272 | 1.7 | 3.5 | 0.00 | 0.00 | 0.00 | 60 | 1012.1 |
| 20260905234305 | 95 | 318 | 1.7 | 2.6 | 0.00 | 0.00 | 0.00 | 58 | 1012.1 |
| 20260905233804 | 96 | 314 | 1.7 | 3.5 | 0.00 | 0.00 | 0.00 | 57 | 1011.8 |
| 20260905233305 | 96 | 313 | 1.7 | 3.5 | 0.00 | 0.00 | 0.00 | 54 | 1012.1 |
| 20260905232805 | 96 | 318 | 2.6 | 4.3 | 0.00 | 0.00 | 0.00 | 54 | 1011.8 |
| 20260905232306 | 96 | 321 | 2.6 | 4.3 | 0.00 | 0.00 | 0.00 | 54 | 1012.1 |
| 20260905231805 | 96 | 326 | 3.5 | 5.2 | 0.00 | 0.00 | 0.00 | 52 | 1011.8 |
| 20260905231305 | 95 | 294 | 1.7 | 5.2 | 0.00 | 0.00 | 0.00 | 51 | 1011.8 |
| 20260905230804 | 96 | 284 | 2.6 | 5.2 | 0.00 | 0.00 | 0.00 | 50 | 1011.8 |
| 20260905230305 | 96 | 312 | 3.5 | 5.2 | 0.00 | 0.00 | 0.00 | 50 | 1012.1 |
| 20260905225805 | 96 | 340 | 4.3 | 5.2 | 0.00 | 0.00 | 0.00 | 51 | 1011.8 |
| 20260905225306 | 96 | 299 | 2.6 | 5.2 | 0.00 | 0.00 | 0.00 | 49 | 1011.8 |
| 20260905224805 | 97 | 328 | 3.5 | 4.3 | 0.00 | 0.00 | 0.00 | 49 | 1011.8 |
| 20260905224305 | 98 | 321 | 3.5 | 4.3 | 0.00 | 0.00 | 0.00 | 47 | 1011.8 |
| 20260905223804 | 97 | 330 | 1.7 | 4.3 | 0.00 | 0.00 | 0.00 | 47 | 1011.8 |
| 20260905223304 | 97 | 322 | 2.6 | 5.2 | 0.00 | 0.00 | 0.00 | 46 | 1012.1 |
| 20260905222805 | 97 | 314 | 4.3 | 7.0 | 0.00 | 0.00 | 0.00 | 47 | 1011.8 |
| 20260905222306 | 97 | 324 | 2.6 | 7.0 | 0.00 | 0.00 | 0.00 | 47 | 1011.8 |
| 20260905221805 | 99 | 318 | 5.2 | 6.1 | 0.00 | 0.00 | 0.00 | 45 | 1011.8 |
| 20260905221305 | 99 | 286 | 1.7 | 4.3 | 0.00 | 0.00 | 0.00 | 44 | 1011.8 |
| 20260905220804 | 100 | 329 | 0.9 | 3.5 | 0.00 | 0.00 | 0.00 | 44 | 1011.8 |
| 20260905220305 | 100 | 259 | 1.7 | 3.5 | 0.00 | 0.00 | 0.00 | 42 | 1012.1 |
| 20260905215805 | 98 | 237 | 1.7 | 4.3 | 0.00 | 0.00 | 0.00 | 43 | 1011.8 |
| 20260905215306 | 97 | 263 | 0.0 | 4.3 | 0.00 | 0.00 | 0.00 | 45 | 1011.8 |
| 20260905214805 | 97 | 298 | 2.6 | 5.2 | 0.00 | 0.00 | 0.00 | 46 | 1011.8 |
| 20260905214304 | 98 | 326 | 2.6 | 5.2 | 0.00 | 0.00 | 0.00 | 45 | 1012.1 |
| 20260905213805 | 98 | 330 | 2.6 | 4.3 | 0.00 | 0.00 | 0.00 | 45 | 1012.1 |
| 20260905213304 | 99 | 297 | 2.6 | 4.3 | 0.00 | 0.00 | 0.00 | 43 | 1012.1 |
| 20260905212805 | 99 | 313 | 2.6 | 4.3 | 0.00 | 0.00 | 0.00 | 44 | 1012.1 |
| 20260905212306 | 98 | 338 | 2.6 | 4.3 | 0.00 | 0.00 | 0.00 | 46 | 1012.1 |
| 20260905211805 | 98 | 350 | 2.6 | 6.1 | 0.00 | 0.00 | 0.00 | 46 | 1012.1 |
| 20260905211305 | 98 | 293 | 3.5 | 6.1 | 0.00 | 0.00 | 0.00 | 44 | 1012.5 |
| 20260905210805 | 100 | 346 | 6.1 | 6.1 | 0.00 | 0.00 | 0.00 | 43 | 1012.5 |
| 20260905210304 | 101 | 290 | 1.7 | 3.5 | 0.00 | 0.00 | 0.00 | 41 | 1012.1 |
| 20260905205805 | 100 | 276 | 1.7 | 3.5 | 0.00 | 0.00 | 0.00 | 43 | 1012.1 |
| 20260905205306 | 98 | 305 | 0.0 | 6.1 | 0.00 | 0.00 | 0.00 | 43 | 1012.5 |
| 20260905204805 | 98 | 336 | 3.5 | 6.1 | 0.00 | 0.00 | 0.00 | 44 | 1012.5 |
| 20260905204304 | 100 | 327 | 3.5 | 4.3 | 0.00 | 0.00 | 0.00 | 43 | 1012.5 |
| 20260905203804 | 100 | 240 | 0.0 | 5.2 | 0.00 | 0.00 | 0.00 | 43 | 1012.5 |
| 20260905203305 | 100 | 296 | 0.9 | 5.2 | 0.00 | 0.00 | 0.00 | 43 | 1012.8 |
| 20260905202805 | 100 | 219 | 1.7 | 4.3 | 0.00 | 0.00 | 0.00 | 43 | 1012.5 |
| 20260905202306 | 100 | 0.0 | 4.3 | 0.00 | 0.00 | 0.00 | 43 | 1012.8 | |
| 20260905201805 | 100 | 227 | 1.7 | 5.2 | 0.00 | 0.00 | 0.00 | 43 | 1012.5 |
| 20260905201305 | 98 | 348 | 4.3 | 5.2 | 0.00 | 0.00 | 0.00 | 46 | 1012.5 |
| 20260905200805 | 98 | 308 | 1.7 | 7.0 | 0.00 | 0.00 | 0.00 | 46 | 1012.5 |
| 20260905200305 | 98 | 333 | 4.3 | 7.0 | 0.00 | 0.00 | 0.00 | 47 | 1012.8 |
| 20260905195805 | 98 | 279 | 3.5 | 6.1 | 0.00 | 0.00 | 0.00 | 45 | 1012.8 |
| 20260905195306 | 98 | 327 | 3.5 | 5.2 | 0.00 | 0.00 | 0.00 | 45 | 1013.2 |
| 20260905194804 | 98 | 328 | 3.5 | 4.3 | 0.00 | 0.00 | 0.00 | 44 | 1013.2 |
| 20260905194304 | 99 | 296 | 2.6 | 4.3 | 0.00 | 0.00 | 0.00 | 43 | 1013.5 |
| 20260905193803 | 99 | 73 | 1.7 | 4.3 | 0.00 | 0.00 | 0.00 | 43 | 1013.5 |
| 20260905193303 | 98 | 260 | 1.7 | 7.8 | 0.00 | 0.00 | 0.00 | 44 | 1013.5 |
| 20260905192804 | 98 | 253 | 4.3 | 7.8 | 0.00 | 0.00 | 0.00 | 45 | 1013.9 |
| 20260905192306 | 99 | 144 | 1.7 | 5.2 | 0.00 | 0.00 | 0.00 | 43 | 1013.9 |
| 20260905191804 | 98 | 356 | 1.7 | 7.0 | 0.00 | 0.00 | 0.00 | 45 | 1013.9 |
| 20260905191304 | 100 | 311 | 5.2 | 7.0 | 0.00 | 0.00 | 0.00 | 44 | 1013.9 |
| 20260905190804 | 100 | 332 | 1.7 | 4.3 | 0.00 | 0.00 | 0.00 | 43 | 1013.9 |
| 20260905190304 | 99 | 259 | 2.6 | 4.3 | 0.00 | 0.00 | 0.00 | 43 | 1014.2 |
| 20260905185804 | 98 | 235 | 0.9 | 5.2 | 0.00 | 0.00 | 0.00 | 44 | 1014.2 |
| 20260905185306 | 97 | 293 | 0.9 | 6.1 | 0.00 | 0.00 | 0.00 | 46 | 1014.6 |
| 20260905184804 | 96 | 262 | 2.6 | 7.8 | 0.00 | 0.00 | 0.00 | 47 | 1014.2 |
| 20260905184304 | 95 | 316 | 5.2 | 7.8 | 0.00 | 0.00 | 0.00 | 49 | 1014.6 |
| 20260905183803 | 97 | 305 | 4.3 | 7.0 | 0.00 | 0.00 | 0.00 | 46 | 1014.6 |
| 20260905183303 | 98 | 305 | 1.7 | 7.0 | 0.00 | 0.00 | 0.00 | 45 | 1014.2 |
| 20260905182804 | 96 | 312 | 2.6 | 6.1 | 0.00 | 0.00 | 0.00 | 47 | 1014.2 |
| 20260905182306 | 98 | 4.3 | 6.1 | 0.00 | 0.00 | 0.00 | 46 | 1014.6 | |
| 20260905181804 | 96 | 323 | 0.9 | 5.2 | 0.00 | 0.00 | 0.00 | 48 | 1014.6 |
| 20260905181304 | 96 | 205 | 2.6 | 5.2 | 0.00 | 0.00 | 0.00 | 48 | 1014.6 |
| 20260905180804 | 96 | 187 | 3.5 | 6.1 | 0.00 | 0.00 | 0.00 | 49 | 1014.6 |
| 20260905180304 | 94 | 259 | 2.6 | 7.8 | 0.00 | 0.00 | 0.00 | 51 | 1014.6 |
| 20260905175804 | 95 | 329 | 5.2 | 7.8 | 0.00 | 0.00 | 0.00 | 50 | 1014.9 |
| 20260905175306 | 96 | 232 | 2.6 | 6.1 | 0.00 | 0.00 | 0.00 | 48 | 1014.6 |
| 20260905174804 | 98 | 322 | 2.6 | 3.5 | 0.00 | 0.00 | 0.00 | 48 | 1014.6 |
| 20260905174303 | 97 | 351 | 1.7 | 3.5 | 0.00 | 0.00 | 0.00 | 48 | 1014.6 |
| 20260905173803 | 97 | 318 | 0.0 | 3.5 | 0.00 | 0.00 | 0.00 | 49 | 1014.9 |
| 20260905173303 | 96 | 314 | 1.7 | 3.5 | 0.00 | 0.00 | 0.00 | 50 | 1014.9 |
| 20260905172803 | 95 | 284 | 1.7 | 5.2 | 0.00 | 0.00 | 0.00 | 52 | 1014.9 |
| 20260905172305 | 94 | 235 | 2.6 | 7.0 | 0.00 | 0.00 | 0.00 | 53 | 1014.9 |
| 20260905171803 | 94 | 243 | 3.5 | 7.0 | 0.00 | 0.00 | 0.00 | 54 | 1014.9 |
| 20260905171304 | 95 | 300 | 3.5 | 5.2 | 0.00 | 0.00 | 0.00 | 52 | 1014.9 |
| 20260905170804 | 95 | 341 | 2.6 | 5.2 | 0.00 | 0.00 | 0.00 | 52 | 1014.9 |
| 20260905170304 | 94 | 330 | 4.3 | 6.1 | 0.00 | 0.00 | 0.00 | 53 | 1015.3 |
| 20260905165804 | 93 | 331 | 4.3 | 8.7 | 0.00 | 0.00 | 0.00 | 54 | 1015.3 |
| 20260905165306 | 93 | 309 | 5.2 | 8.7 | 0.00 | 0.00 | 0.00 | 52 | 1015.3 |
| 20260905164803 | 94 | 250 | 2.6 | 5.2 | 0.00 | 0.00 | 0.00 | 51 | 1015.3 |
| 20260905164304 | 93 | 344 | 2.6 | 9.6 | 0.00 | 0.00 | 0.00 | 53 | 1015.6 |
| 20260905163804 | 94 | 341 | 4.3 | 9.6 | 0.00 | 0.00 | 0.00 | 53 | 1015.6 |
| 20260905163304 | 95 | 343 | 2.6 | 4.3 | 0.00 | 0.00 | 0.00 | 52 | 1015.6 |
| 20260905162803 | 95 | 325 | 1.7 | 4.3 | 0.00 | 0.00 | 0.00 | 53 | 1015.6 |
| 20260905162306 | 95 | 7 | 1.7 | 4.3 | 0.00 | 0.00 | 0.00 | 53 | 1015.6 |
| 20260905161804 | 95 | 343 | 0.0 | 3.5 | 0.00 | 0.00 | 0.00 | 53 | 1015.6 |
| 20260905161304 | 94 | 315 | 0.9 | 3.5 | 0.00 | 0.00 | 0.00 | 55 | 1015.6 |
| 20260905160803 | 93 | 337 | 1.7 | 4.3 | 0.00 | 0.00 | 0.00 | 57 | 1015.6 |
| 20260905160303 | 93 | 349 | 1.7 | 4.3 | 0.00 | 0.00 | 0.00 | 58 | 1015.9 |
| 20260905155803 | 93 | 338 | 1.7 | 4.3 | 0.00 | 0.00 | 0.00 | 57 | 1015.6 |
| 20260905155306 | 93 | 312 | 1.7 | 4.3 | 0.00 | 0.00 | 0.00 | 57 | 1015.6 |
| 20260905154803 | 91 | 331 | 2.6 | 5.2 | 0.00 | 0.00 | 0.00 | 61 | 1015.9 |
| 20260905154304 | 91 | 317 | 4.3 | 5.2 | 0.00 | 0.00 | 0.00 | 60 | 1015.9 |
| 20260905153804 | 91 | 323 | 2.6 | 6.1 | 0.00 | 0.00 | 0.00 | 61 | 1015.9 |
| 20260905153304 | 90 | 324 | 3.5 | 6.1 | 0.00 | 0.00 | 0.00 | 61 | 1015.9 |
| 20260905152804 | 91 | 322 | 2.6 | 4.3 | 0.00 | 0.00 | 0.00 | 60 | 1015.9 |
| 20260905152306 | 92 | 336 | 1.7 | 4.3 | 0.00 | 0.00 | 0.00 | 59 | 1015.9 |
| 20260905151803 | 91 | 282 | 1.7 | 3.5 | 0.00 | 0.00 | 0.00 | 61 | 1015.9 |
| 20260905151303 | 90 | 346 | 2.6 | 4.3 | 0.00 | 0.00 | 0.00 | 62 | 1016.3 |
| 20260905150803 | 89 | 266 | 1.7 | 5.2 | 0.00 | 0.00 | 0.00 | 64 | 1016.3 |
| 20260905150303 | 91 | 312 | 2.6 | 7.8 | 0.00 | 0.00 | 0.00 | 62 | 1015.9 |
| 20260905145804 | 90 | 318 | 0.9 | 7.8 | 0.00 | 0.00 | 0.00 | 64 | 1015.9 |
| 20260905145306 | 88 | 311 | 2.6 | 6.1 | 0.00 | 0.00 | 0.00 | 67 | 1015.9 |
| 20260905144804 | 87 | 161 | 0.9 | 6.1 | 0.00 | 0.00 | 0.00 | 68 | 1015.9 |
| 20260905144303 | 87 | 4 | 3.5 | 6.1 | 0.00 | 0.00 | 0.00 | 68 | 1016.3 |
| 20260905143805 | 87 | 339 | 1.7 | 5.2 | 0.00 | 0.00 | 0.00 | 68 | 1016.3 |
| 20260905143304 | 87 | 74 | 1.7 | 6.1 | 0.00 | 0.00 | 0.00 | 68 | 1016.3 |
| 20260905142804 | 86 | 212 | 1.7 | 6.1 | 0.00 | 0.00 | 0.00 | 69 | 1015.9 |
| 20260905142306 | 86 | 350 | 4.3 | 6.1 | 0.00 | 0.00 | 0.00 | 68 | 1015.9 |
| 20260905141803 | 85 | 30 | 2.6 | 5.2 | 0.00 | 0.00 | 0.00 | 71 | 1015.9 |
| 20260905141303 | 85 | 263 | 2.6 | 5.2 | 0.00 | 0.00 | 0.00 | 72 | 1016.3 |
| 20260905140804 | 85 | 343 | 4.3 | 4.3 | 0.00 | 0.00 | 0.00 | 72 | 1015.9 |
| 20260905140304 | 85 | 2.6 | 4.3 | 0.00 | 0.00 | 0.00 | 72 | 1015.9 | |
| 20260905135803 | 85 | 222 | 1.7 | 3.5 | 0.00 | 0.00 | 0.00 | 73 | 1015.9 |
| 20260905135306 | 84 | 300 | 0.9 | 4.3 | 0.00 | 0.00 | 0.00 | 74 | 1015.9 |
| 20260905134803 | 84 | 312 | 2.6 | 4.3 | 0.00 | 0.00 | 0.00 | 75 | 1015.9 |
| 20260905134303 | 84 | 350 | 3.5 | 4.3 | 0.00 | 0.00 | 0.00 | 75 | 1015.9 |
| 20260905133804 | 83 | 52 | 1.7 | 4.3 | 0.00 | 0.00 | 0.00 | 77 | 1015.9 |
| 20260905133304 | 82 | 315 | 0.9 | 4.3 | 0.00 | 0.00 | 0.00 | 78 | 1016.3 |
| 20260905132804 | 82 | 338 | 1.7 | 4.3 | 0.00 | 0.00 | 0.00 | 78 | 1015.9 |
| 20260905132305 | 82 | 323 | 0.9 | 3.5 | 0.00 | 0.00 | 0.00 | 81 | 1016.3 |
| 20260905131803 | 81 | 335 | 3.5 | 4.3 | 0.00 | 0.00 | 0.00 | 81 | 1016.3 |
| 20260905131303 | 80 | 353 | 0.0 | 4.3 | 0.00 | 0.00 | 0.00 | 84 | 1016.3 |
| 20260905130803 | 80 | 329 | 1.7 | 2.6 | 0.00 | 0.00 | 0.00 | 85 | 1016.3 |
| 20260905130304 | 80 | 332 | 1.7 | 2.6 | 0.00 | 0.00 | 0.00 | 86 | 1016.3 |
| 20260905125803 | 78 | 138 | 0.0 | 2.6 | 0.00 | 0.00 | 0.00 | 88 | 1015.9 |
| 20260905125305 | 78 | 321 | 1.7 | 4.3 | 0.00 | 0.00 | 0.00 | 89 | 1015.9 |
| 20260905124803 | 77 | 10 | 0.9 | 4.3 | 0.00 | 0.00 | 0.00 | 89 | 1016.3 |
| 20260905124304 | 77 | 15 | 1.7 | 3.5 | 0.00 | 0.00 | 0.00 | 89 | 1015.9 |
| 20260905123803 | 77 | 6 | 1.7 | 3.5 | 0.00 | 0.00 | 0.00 | 89 | 1016.3 |
| 20260905123304 | 77 | 332 | 2.6 | 3.5 | 0.00 | 0.00 | 0.00 | 90 | 1015.9 |
| 20260905122803 | 76 | 349 | 0.9 | 2.6 | 0.00 | 0.00 | 0.00 | 92 | 1016.3 |
| 20260905122306 | 75 | 27 | 0.9 | 2.6 | 0.00 | 0.00 | 0.00 | 93 | 1015.9 |
| 20260905121803 | 75 | 255 | 1.7 | 2.6 | 0.00 | 0.00 | 0.00 | 93 | 1015.9 |
| 20260905121303 | 75 | 126 | 0.0 | 2.6 | 0.00 | 0.00 | 0.00 | 93 | 1015.9 |
| 20260905120804 | 75 | 83 | 0.9 | 2.6 | 0.00 | 0.00 | 0.00 | 93 | 1015.9 |
| 20260905120303 | 75 | 159 | 0.9 | 2.6 | 0.00 | 0.00 | 0.00 | 93 | 1015.9 |
| 20260905115803 | 75 | 128 | 1.7 | 2.6 | 0.00 | 0.00 | 0.00 | 91 | 1016.3 |
| 20260905115306 | 75 | 85 | 0.0 | 3.5 | 0.00 | 0.00 | 0.00 | 93 | 1015.9 |
| 20260905114803 | 74 | 78 | 0.9 | 3.5 | 0.00 | 0.00 | 0.00 | 94 | 1015.9 |
| 20260905114303 | 74 | 313 | 0.9 | 2.6 | 0.00 | 0.00 | 0.00 | 94 | 1016.3 |
| 20260905113803 | 74 | 160 | 0.0 | 2.6 | 0.00 | 0.00 | 0.00 | 94 | 1015.9 |
| 20260905113303 | 75 | 184 | 2.6 | 3.5 | 0.00 | 0.00 | 0.00 | 92 | 1015.6 |
| 20260905112803 | 75 | 354 | 1.7 | 3.5 | 0.00 | 0.00 | 0.00 | 93 | 1015.6 |
| 20260905112305 | 75 | 53 | 0.9 | 2.6 | 0.00 | 0.00 | 0.00 | 93 | 1015.6 |
| 20260905111803 | 74 | 102 | 0.0 | 2.6 | 0.00 | 0.00 | 0.00 | 94 | 1015.3 |
| 20260905111303 | 74 | 3 | 1.7 | 4.3 | 0.00 | 0.00 | 0.00 | 95 | 1015.3 |
| 20260905110804 | 74 | 307 | 1.7 | 4.3 | 0.00 | 0.00 | 0.00 | 95 | 1015.3 |
| 20260905110303 | 74 | 312 | 2.6 | 3.5 | 0.00 | 0.00 | 0.00 | 94 | 1015.3 |